Weather History for Alamosa, CO

Change the Weather History Date:

Friday, February 15, 2013

  Actual Average Record
Temperature  
Mean Temperature 20 °F 23 °F  
Max Temperature 37 °F 40 °F 62 °F (2014)
Min Temperature 3 °F 6 °F -19 °F (1948)
Degree Days  
Heating Degree Days 45 42  
Month to date heating degree days 640 669  
Since 1 July heating degree days 6199 5816  
Cooling Degree Days 0 0  
Month to date cooling degree days 0 0  
Year to date cooling degree days 0 0  
Moisture  
Dew Point 4 °F    
Average Humidity 52    
Maximum Humidity 83    
Minimum Humidity 21    
Precipitation  
Precipitation 0.00 in 0.01 in 0.23 in (1993)
Month to date precipitation T 0.13  
Year to date precipitation 0.07 0.39  
Snow  
Snow 0.00 in 0.10 in 0.80 in (1965)
Month to date snowfall T 2.1  
Since 1 July snowfall 13.1 16.4  
Snow Depth 0.00 in    
Sea Level Pressure  
Sea Level Pressure 30.37 in    
Wind  
Wind Speed 10 mph (NW)    
Max Wind Speed 26 mph    
Max Gust Speed 33 mph    
Visibility 10 miles    
Events      
T = Trace of Precipitation, MM = Missing Value Source: NWS Daily Summary

Daily Weather History Graph

Daily Weather History Graph

Search for Another Location

Airport:

Trip Planner

Search our weather history database for the weather conditions in past years. The results will help you decide how hot, cold, wet, or windy it might be!

Date:

Astronomy

Feb. 15, 2013 Rise Set
Actual Time 6:52 AM MST 5:43 PM MST
Civil Twilight 6:25 AM MST 6:10 PM MST
Nautical Twilight 5:54 AM MST 6:40 PM MST
Astronomical Twilight 5:24 AM MST 7:11 PM MST
Moon 9:38 AM MST (2/15) 11:38 PM MST (2/15)
Length of Visible Light 11h 44m
Length of Day
10h 51m
Waxing Crescent, 31% of the Moon is Illuminated
Feb 15
Waxing Crescent
Feb 17
First Quarter
Feb 25
Full
Mar 4
Last Quarter
Mar 11
New

Hourly Weather History & Observations

Time (MST) Temp. Windchill Dew Point Humidity Pressure Visibility Wind Dir Wind Speed Gust Speed Precip Events Conditions
12:52 AM 10.0 °F 0.4 °F 5.0 °F 80% 30.30 in 10.0 mi East 5.8 mph - N/A   Clear
1:52 AM 8.6 °F 0.1 °F 3.2 °F 79% 30.21 in 10.0 mi WSW 4.6 mph - N/A   Clear
2:52 AM 6.1 °F -4.3 °F 1.9 °F 83% 30.32 in 10.0 mi SW 5.8 mph - N/A   Clear
3:52 AM 6.1 °F -8.7 °F 1.0 °F 80% 30.31 in 10.0 mi SW 10.4 mph - N/A   Clear
4:52 AM 5.0 °F -2.1 °F -0.9 °F 76% 30.32 in 10.0 mi Variable 3.5 mph - N/A   Clear
5:52 AM 3.9 °F - -2.0 °F 76% 30.38 in 10.0 mi Calm Calm - N/A   Clear
6:52 AM 7.0 °F -5.7 °F 1.0 °F 77% 30.38 in 10.0 mi WSW 8.1 mph - N/A   Clear
7:52 AM 12.0 °F - 3.9 °F 70% 30.39 in 10.0 mi Calm Calm - N/A   Mostly Cloudy
8:52 AM 18.0 °F 12.7 °F 5.0 °F 57% 30.38 in 10.0 mi South 3.5 mph - N/A   Scattered Clouds
9:52 AM 28.9 °F 23.9 °F 6.1 °F 38% 30.34 in 10.0 mi WNW 4.6 mph - N/A   Clear
10:52 AM 30.9 °F 18.7 °F 7.0 °F 37% 30.34 in 10.0 mi NNW 19.6 mph 25.3 mph N/A   Clear
11:52 AM 34.0 °F 24.2 °F 6.1 °F 31% 30.33 in 10.0 mi NNW 15.0 mph 20.7 mph N/A   Mostly Cloudy
12:52 PM 34.0 °F 23.8 °F 3.9 °F 28% 30.34 in 10.0 mi North 16.1 mph 27.6 mph N/A   Scattered Clouds
1:52 PM 36.0 °F 24.4 °F 1.9 °F 24% 30.31 in 10.0 mi NNW 23.0 mph 31.1 mph N/A   Partly Cloudy
2:52 PM 37.0 °F 27.4 °F 1.9 °F 23% 30.32 in 10.0 mi NNW 17.3 mph 29.9 mph N/A   Clear
3:52 PM 36.0 °F 25.0 °F 1.9 °F 24% 30.37 in 10.0 mi NNW 20.7 mph 28.8 mph N/A   Clear
4:52 PM 33.1 °F 21.5 °F 6.1 °F 32% 30.40 in 10.0 mi NNW 19.6 mph 27.6 mph N/A   Clear
5:52 PM 28.9 °F 18.2 °F 8.1 °F 41% 30.44 in 10.0 mi NW 13.8 mph - N/A   Clear
6:52 PM 26.1 °F 15.0 °F 7.0 °F 44% 30.47 in 10.0 mi NNW 12.7 mph - N/A   Clear
7:52 PM 26.1 °F 15.6 °F 6.1 °F 43% 30.45 in 10.0 mi North 11.5 mph - N/A   Clear
8:52 PM 25.0 °F 12.6 °F 6.1 °F 45% 30.44 in 10.0 mi North 15.0 mph - N/A   Clear
9:52 PM 24.1 °F 17.0 °F 6.1 °F 46% 30.39 in 10.0 mi NNW 5.8 mph - N/A   Clear
10:52 PM 16.0 °F 7.4 °F 5.0 °F 62% 30.44 in 10.0 mi ESE 5.8 mph - N/A   Clear
11:52 PM 10.9 °F 4.7 °F 3.0 °F 70% 30.45 in 10.0 mi SW 3.5 mph - N/A   Clear